| time (UTC) | temp F | wind direction | speed MPH | gust MPH | rain 1hr in | rain 24hr in | rain mn in | humidity % | barometer mb |
| 20260902133004 | 75 | 236 | 2.0 | 4.0 | 0.00 | 0.00 | 0.00 | 48 | 1013.8 |
| 20260902132503 | 74 | 220 | 3.0 | 5.0 | 0.00 | 0.00 | 0.00 | 46 | 1013.7 |
| 20260902132003 | 74 | 226 | 2.0 | 5.0 | 0.00 | 0.00 | 0.00 | 46 | 1013.9 |
| 20260902131503 | 74 | 228 | 2.0 | 7.0 | 0.00 | 0.00 | 0.00 | 45 | 1013.9 |
| 20260902125503 | 76 | 240 | 3.0 | 4.0 | 0.00 | 0.00 | 0.00 | 44 | 1013.8 |
| 20260902125003 | 75 | 211 | 3.0 | 4.0 | 0.00 | 0.00 | 0.00 | 45 | 1013.9 |
| 20260902124504 | 74 | 202 | 2.0 | 8.0 | 0.00 | 0.00 | 0.00 | 46 | 1013.6 |
| 20260902124004 | 74 | 222 | 3.0 | 8.0 | 0.00 | 0.00 | 0.00 | 46 | 1013.8 |
| 20260902123504 | 73 | 214 | 2.0 | 8.0 | 0.00 | 0.00 | 0.00 | 46 | 1013.8 |
| 20260902123004 | 73 | 195 | 2.0 | 8.0 | 0.00 | 0.00 | 0.00 | 45 | 1013.9 |
| 20260902122504 | 73 | 169 | 2.0 | 6.0 | 0.00 | 0.00 | 0.00 | 46 | 1013.8 |
| 20260902122005 | 73 | 287 | 3.0 | 6.0 | 0.00 | 0.00 | 0.00 | 46 | 1014.1 |
| 20260902121004 | 73 | 50 | 2.0 | 4.0 | 0.00 | 0.00 | 0.00 | 45 | 1014.1 |
| 20260902120505 | 74 | 83 | 3.0 | 5.0 | 0.00 | 0.00 | 0.00 | 44 | 1013.9 |
| 20260902120005 | 74 | 177 | 3.0 | 5.0 | 0.00 | 0.00 | 0.00 | 44 | 1014.0 |
| 20260902115504 | 74 | 199 | 2.0 | 9.0 | 0.00 | 0.00 | 0.00 | 44 | 1014.1 |
| 20260902115004 | 75 | 208 | 4.0 | 9.0 | 0.00 | 0.00 | 0.00 | 42 | 1014.1 |
| 20260902114505 | 75 | 176 | 4.0 | 8.0 | 0.00 | 0.00 | 0.00 | 44 | 1014.1 |
| 20260902114005 | 75 | 191 | 4.0 | 8.0 | 0.00 | 0.00 | 0.00 | 43 | 1014.1 |
| 20260902113504 | 75 | 240 | 4.0 | 8.0 | 0.00 | 0.00 | 0.00 | 44 | 1014.2 |
| 20260902113005 | 74 | 271 | 4.0 | 8.0 | 0.00 | 0.00 | 0.00 | 43 | 1014.1 |
| 20260902112504 | 74 | 220 | 4.0 | 8.0 | 0.00 | 0.00 | 0.00 | 43 | 1014.2 |
| 20260902112005 | 74 | 182 | 2.0 | 8.0 | 0.00 | 0.00 | 0.00 | 43 | 1014.1 |
| 20260902111005 | 73 | 208 | 3.0 | 5.0 | 0.00 | 0.00 | 0.00 | 45 | 1014.1 |
| 20260902110504 | 72 | 187 | 2.0 | 5.0 | 0.00 | 0.00 | 0.00 | 49 | 1014.1 |
| 20260902110007 | 72 | 183 | 4.0 | 7.0 | 0.00 | 0.00 | 0.00 | 47 | 1014.3 |
| 20260902105005 | 73 | 326 | 3.0 | 5.0 | 0.00 | 0.00 | 0.00 | 45 | 1014.4 |
| 20260902104505 | 74 | 253 | 4.0 | 5.0 | 0.00 | 0.00 | 0.00 | 46 | 1014.7 |
| 20260902104005 | 74 | 218 | 2.0 | 7.0 | 0.00 | 0.00 | 0.00 | 50 | 1014.4 |
| 20260902103004 | 74 | 175 | 2.0 | 7.0 | 0.00 | 0.00 | 0.00 | 51 | 1014.5 |
| 20260902102504 | 74 | 186 | 4.0 | 7.0 | 0.00 | 0.00 | 0.00 | 50 | 1014.4 |
| 20260902102004 | 74 | 212 | 4.0 | 7.0 | 0.00 | 0.00 | 0.00 | 51 | 1014.6 |
| 20260902101005 | 73 | 66 | 2.0 | 5.0 | 0.00 | 0.00 | 0.00 | 53 | 1014.7 |
| 20260902100004 | 72 | 210 | 3.0 | 7.0 | 0.00 | 0.00 | 0.00 | 57 | 1014.7 |
| 20260902095505 | 72 | 197 | 4.0 | 6.0 | 0.00 | 0.00 | 0.00 | 57 | 1014.8 |
| 20260902095004 | 71 | 203 | 3.0 | 6.0 | 0.00 | 0.00 | 0.00 | 58 | 1014.5 |
| 20260902094505 | 71 | 178 | 3.0 | 6.0 | 0.00 | 0.00 | 0.00 | 60 | 1014.5 |
| 20260902094005 | 71 | 188 | 4.0 | 6.0 | 0.00 | 0.00 | 0.00 | 60 | 1014.4 |
| 20260902093504 | 70 | 192 | 4.0 | 7.0 | 0.00 | 0.00 | 0.00 | 61 | 1014.4 |
| 20260902093005 | 70 | 172 | 4.0 | 7.0 | 0.00 | 0.00 | 0.00 | 62 | 1014.6 |
| 20260902092504 | 70 | 174 | 2.0 | 6.0 | 0.00 | 0.00 | 0.00 | 62 | 1014.6 |
| 20260902091504 | 69 | 212 | 4.0 | 6.0 | 0.00 | 0.00 | 0.00 | 64 | 1014.8 |
| 20260902090504 | 68 | 100 | 1.0 | 2.0 | 0.00 | 0.00 | 0.00 | 72 | 1014.8 |
| 20260902090005 | 67 | 25 | 1.0 | 2.0 | 0.00 | 0.00 | 0.00 | 76 | 1015.0 |
| 20260902085505 | 65 | 24 | 1.0 | 2.0 | 0.00 | 0.00 | 0.00 | 78 | 1015.0 |
| 20260902085005 | 64 | 181 | 0.0 | 2.0 | 0.00 | 0.00 | 0.00 | 77 | 1014.9 |
| 20260902084504 | 63 | 162 | 0.0 | 3.0 | 0.00 | 0.00 | 0.00 | 81 | 1015.0 |
| 20260902084005 | 63 | 156 | 0.0 | 3.0 | 0.00 | 0.00 | 0.00 | 81 | 1015.1 |
| 20260902083505 | 63 | 298 | 2.0 | 3.0 | 0.00 | 0.00 | 0.00 | 82 | 1015.0 |
| 20260902083004 | 63 | 283 | 1.0 | 3.0 | 0.00 | 0.00 | 0.00 | 82 | 1014.9 |
| 20260902082004 | 63 | 174 | 1.0 | 2.0 | 0.00 | 0.00 | 0.00 | 90 | 1014.9 |
| 20260902081505 | 61 | 192 | 0.0 | 3.0 | 0.00 | 0.00 | 0.00 | 92 | 1015.0 |
| 20260902081005 | 59 | 212 | 0.0 | 3.0 | 0.00 | 0.00 | 0.00 | 93 | 1014.9 |
| 20260902080505 | 58 | 220 | 2.0 | 2.0 | 0.00 | 0.00 | 0.00 | 97 | 1014.8 |
| 20260902080004 | 58 | 199 | 2.0 | 2.0 | 0.00 | 0.00 | 0.00 | 97 | 1014.6 |
| 20260902075506 | 57 | 0 | 0.0 | 0.0 | 0.00 | 0.00 | 0.00 | 98 | 1014.6 |
| 20260901213504 | 57 | 0 | 0.0 | 0.0 | 0.00 | 0.00 | 0.00 | 83 | 1015.1 |
| 20260901213004 | 57 | 167 | 0.0 | 2.0 | 0.00 | 0.00 | 0.00 | 83 | 1015.0 |
| 20260901212503 | 57 | 134 | 0.0 | 2.0 | 0.00 | 0.00 | 0.00 | 83 | 1015.0 |
| 20260901204004 | 60 | 77 | 0.0 | 2.0 | 0.00 | 0.02 | 0.00 | 79 | 1015.0 |
| 20260901203503 | 60 | 159 | 0.0 | 1.0 | 0.00 | 0.02 | 0.00 | 79 | 1014.8 |
| 20260901203004 | 60 | 154 | 0.0 | 2.0 | 0.00 | 0.02 | 0.00 | 78 | 1014.9 |
| 20260901202503 | 61 | 170 | 0.0 | 2.0 | 0.00 | 0.02 | 0.00 | 78 | 1015.0 |
| 20260901202004 | 61 | 175 | 0.0 | 2.0 | 0.00 | 0.02 | 0.00 | 78 | 1014.8 |
| 20260901201004 | 62 | 181 | 0.0 | 1.0 | 0.00 | 0.02 | 0.00 | 77 | 1014.8 |
| 20260901200503 | 62 | 177 | 1.0 | 2.0 | 0.00 | 0.02 | 0.00 | 76 | 1014.6 |
| 20260901200003 | 62 | 177 | 1.0 | 2.0 | 0.00 | 0.02 | 0.00 | 76 | 1014.6 |
| 20260901195504 | 62 | 181 | 1.0 | 2.0 | 0.00 | 0.02 | 0.00 | 75 | 1014.6 |
| 20260901195003 | 63 | 0 | 0.0 | 0.0 | 0.00 | 0.02 | 0.00 | 74 | 1014.7 |
| 20260901194003 | 64 | 0 | 0.0 | 0.0 | 0.00 | 0.02 | 0.00 | 69 | 1014.6 |
| 20260901192003 | 65 | 50 | 1.0 | 2.0 | 0.00 | 0.02 | 0.00 | 67 | 1014.7 |
| 20260901191504 | 65 | 135 | 0.0 | 1.0 | 0.00 | 0.02 | 0.00 | 67 | 1014.6 |
| 20260901191004 | 65 | 153 | 0.0 | 2.0 | 0.00 | 0.02 | 0.00 | 66 | 1014.6 |
| 20260901185503 | 65 | 42 | 1.0 | 4.0 | 0.00 | 0.02 | 0.00 | 65 | 1014.4 |
| 20260901185004 | 66 | 75 | 0.0 | 4.0 | 0.00 | 0.02 | 0.00 | 64 | 1014.3 |
| 20260901183504 | 67 | 331 | 2.0 | 5.0 | 0.00 | 0.02 | 0.00 | 63 | 1014.2 |
| 20260901183004 | 67 | 84 | 1.0 | 5.0 | 0.00 | 0.02 | 0.00 | 62 | 1014.2 |
| 20260901182503 | 68 | 90 | 2.0 | 5.0 | 0.00 | 0.02 | 0.00 | 61 | 1014.2 |
| 20260901182003 | 68 | 29 | 4.0 | 5.0 | 0.00 | 0.02 | 0.00 | 61 | 1013.8 |
| 20260901181504 | 68 | 359 | 1.0 | 3.0 | 0.00 | 0.02 | 0.00 | 60 | 1013.7 |
| 20260901181003 | 69 | 225 | 0.0 | 2.0 | 0.00 | 0.02 | 0.00 | 60 | 1013.9 |
| 20260901180503 | 70 | 211 | 1.0 | 2.0 | 0.00 | 0.02 | 0.00 | 56 | 1013.5 |
| 20260901180004 | 70 | 198 | 1.0 | 2.0 | 0.00 | 0.02 | 0.00 | 56 | 1013.8 |
| 20260901175503 | 70 | 201 | 2.0 | 2.0 | 0.00 | 0.02 | 0.00 | 55 | 1013.5 |
| 20260901175004 | 70 | 193 | 1.0 | 2.0 | 0.00 | 0.04 | 0.00 | 53 | 1013.3 |
| 20260901174503 | 71 | 177 | 1.0 | 3.0 | 0.00 | 0.06 | 0.00 | 52 | 1013.5 |
| 20260901173503 | 71 | 169 | 1.0 | 3.0 | 0.00 | 0.16 | 0.00 | 51 | 1013.5 |
| 20260901173003 | 72 | 194 | 2.0 | 3.0 | 0.00 | 0.16 | 0.00 | 50 | 1013.3 |
| 20260901172504 | 72 | 207 | 2.0 | 4.0 | 0.00 | 0.16 | 0.00 | 45 | 1013.2 |
| 20260901172003 | 74 | 199 | 2.0 | 4.0 | 0.00 | 0.16 | 0.00 | 44 | 1013.3 |
| 20260901171504 | 74 | 199 | 2.0 | 5.0 | 0.00 | 0.16 | 0.00 | 43 | 1013.4 |
| 20260901171004 | 75 | 189 | 2.0 | 5.0 | 0.00 | 0.16 | 0.00 | 42 | 1013.3 |
| 20260901170504 | 76 | 191 | 1.0 | 5.0 | 0.00 | 0.16 | 0.00 | 41 | 1013.3 |
| 20260901170004 | 78 | 202 | 1.0 | 4.0 | 0.00 | 0.16 | 0.00 | 41 | 1013.3 |
| 20260901165504 | 78 | 193 | 3.0 | 5.0 | 0.00 | 0.16 | 0.00 | 41 | 1013.5 |
| 20260901164503 | 78 | 190 | 1.0 | 2.0 | 0.00 | 0.16 | 0.00 | 43 | 1013.5 |
| 20260901163504 | 78 | 148 | 1.0 | 4.0 | 0.00 | 0.16 | 0.00 | 43 | 1013.4 |
| 20260901162503 | 78 | 153 | 2.0 | 4.0 | 0.00 | 0.16 | 0.00 | 43 | 1013.4 |
| 20260901161504 | 78 | 222 | 1.0 | 4.0 | 0.00 | 0.16 | 0.00 | 44 | 1013.4 |
| 20260901161004 | 78 | 205 | 2.0 | 4.0 | 0.00 | 0.16 | 0.00 | 43 | 1013.4 |
| 20260901160503 | 77 | 121 | 1.0 | 4.0 | 0.00 | 0.16 | 0.00 | 46 | 1013.3 |
| 20260901160004 | 77 | 139 | 1.0 | 4.0 | 0.00 | 0.16 | 0.00 | 46 | 1013.3 |
| 20260901155504 | 77 | 208 | 3.0 | 4.0 | 0.00 | 0.16 | 0.00 | 46 | 1013.5 |
| 20260901155004 | 76 | 211 | 2.0 | 4.0 | 0.00 | 0.16 | 0.00 | 50 | 1013.5 |
| 20260901154504 | 74 | 208 | 2.0 | 5.0 | 0.00 | 0.16 | 0.00 | 50 | 1013.7 |
| 20260901154003 | 74 | 198 | 2.0 | 5.0 | 0.00 | 0.16 | 0.00 | 50 | 1013.5 |
| 20260901153503 | 74 | 195 | 1.0 | 4.0 | 0.00 | 0.16 | 0.00 | 51 | 1013.6 |
| 20260901153004 | 74 | 182 | 2.0 | 4.0 | 0.00 | 0.16 | 0.00 | 52 | 1013.5 |
| 20260901152503 | 73 | 175 | 2.0 | 4.0 | 0.00 | 0.16 | 0.00 | 52 | 1013.5 |
| 20260901152004 | 72 | 189 | 2.0 | 4.0 | 0.00 | 0.16 | 0.00 | 52 | 1013.6 |
| 20260901151503 | 73 | 203 | 2.0 | 4.0 | 0.00 | 0.16 | 0.00 | 51 | 1013.5 |
| 20260901150004 | 74 | 204 | 3.0 | 8.0 | 0.00 | 0.16 | 0.00 | 51 | 1013.5 |
| 20260901145504 | 74 | 218 | 3.0 | 6.0 | 0.00 | 0.16 | 0.00 | 50 | 1013.7 |
| 20260901145004 | 74 | 262 | 3.0 | 6.0 | 0.00 | 0.16 | 0.00 | 51 | 1013.5 |
| 20260901144503 | 73 | 275 | 2.0 | 4.0 | 0.00 | 0.16 | 0.00 | 51 | 1013.5 |
| 20260901144004 | 73 | 329 | 2.0 | 4.0 | 0.00 | 0.16 | 0.00 | 52 | 1013.5 |
| 20260901143503 | 73 | 280 | 2.0 | 5.0 | 0.00 | 0.16 | 0.00 | 52 | 1013.7 |
| 20260901143004 | 73 | 256 | 4.0 | 6.0 | 0.00 | 0.16 | 0.00 | 51 | 1013.6 |
| 20260901142504 | 73 | 172 | 3.0 | 6.0 | 0.00 | 0.16 | 0.00 | 51 | 1013.6 |
| 20260901142003 | 74 | 174 | 2.0 | 4.0 | 0.00 | 0.16 | 0.00 | 51 | 1013.6 |
| 20260901141504 | 74 | 199 | 2.0 | 5.0 | 0.00 | 0.16 | 0.00 | 50 | 1013.7 |
| 20260901141003 | 74 | 186 | 2.0 | 5.0 | 0.00 | 0.16 | 0.00 | 50 | 1013.7 |
| 20260901140504 | 75 | 166 | 3.0 | 4.0 | 0.00 | 0.16 | 0.00 | 49 | 1013.6 |
| 20260901140004 | 75 | 215 | 3.0 | 4.0 | 0.00 | 0.16 | 0.00 | 49 | 1013.7 |
| 20260901135004 | 77 | 245 | 2.0 | 8.0 | 0.00 | 0.16 | 0.00 | 44 | 1013.7 |
| 20260901134503 | 78 | 275 | 2.0 | 8.0 | 0.00 | 0.16 | 0.00 | 43 | 1013.5 |
| 20260901133504 | 77 | 224 | 2.0 | 4.0 | 0.00 | 0.16 | 0.00 | 48 | 1013.6 |